Location: Unspecified
(0.0000°N, 0.0000°E)
Time: 02:24:32
(UTC+00:00)

SRMSAT - Visible Passes

Search period start: 17 January 2019 00:00
Search period end: 27 January 2019 00:00
Orbit: 849 x 866 km, 20.0° (Epoch: 15 January)

Date Brightness Start Highest point End Pass type
(mag) Time Alt. Az. Time Alt. Az. Time Alt. Az.
17 Jan ? 04:18:00 10° SSW 04:21:44 17° SSE 04:25:26 10° SE visible
17 Jan ? 18:53:31 10° WNW 18:59:30 69° NNE 19:05:17 11° ESE visible
17 Jan ? 20:43:03 10° W 20:47:19 37° SW 20:47:19 37° SW visible
18 Jan ? 04:05:10 11° SSW 04:08:52 19° SSE 04:12:54 10° ESE visible
18 Jan ? 18:40:32 10° WNW 18:46:33 79° NNE 18:52:34 10° ESE visible
18 Jan ? 20:30:15 10° W 20:35:48 38° SSW 20:35:55 38° SSW visible
19 Jan ? 03:53:34 16° SSW 03:56:00 21° SSE 04:00:19 10° ESE visible
19 Jan ? 05:39:45 10° SW 05:45:28 50° SSE 05:51:12 10° E visible
19 Jan ? 18:27:34 10° WNW 18:33:35 89° N 18:39:38 10° ESE visible
19 Jan ? 20:17:30 10° W 20:22:53 34° SSW 20:24:29 29° S visible
20 Jan ? 03:42:04 22° S 03:43:08 23° SSE 03:47:43 10° ESE visible
20 Jan ? 05:26:43 10° WSW 05:32:33 57° SSE 05:38:21 10° E visible
20 Jan ? 20:04:45 10° W 20:09:58 30° SSW 20:12:59 20° SSE visible
21 Jan ? 03:30:37 25° SSE 03:30:37 25° SSE 03:35:04 10° ESE visible
21 Jan ? 05:13:43 10° WSW 05:19:36 66° SSE 05:25:29 10° ENE visible
21 Jan ? 19:52:03 10° WSW 19:57:04 27° SSW 20:01:23 13° SE visible
22 Jan ? 03:19:14 24° SE 03:19:14 24° SE 03:22:24 10° ESE visible
22 Jan ? 05:01:16 13° WSW 05:06:40 76° SSE 05:12:35 10° ENE visible
22 Jan ? 19:39:23 10° WSW 19:44:10 24° SSW 19:48:58 10° SE visible
22 Jan ? 21:31:42 10° SSW 21:31:44 10° SSW 21:31:44 10° SSW visible
23 Jan ? 03:07:51 19° ESE 03:07:51 19° ESE 03:09:41 10° E visible
23 Jan ? 04:49:54 23° WSW 04:53:44 87° SSE 04:59:39 10° ENE visible
23 Jan ? 19:26:45 10° WSW 19:31:16 22° SSW 19:35:50 10° SSE visible
23 Jan ? 21:19:16 10° SSW 21:19:58 11° SSW 21:19:58 11° SSW visible
24 Jan ? 02:56:28 12° E 02:56:28 12° E 02:56:57 10° E visible
24 Jan ? 04:38:30 40° WSW 04:40:47 83° NNW 04:46:43 10° ENE visible
24 Jan ? 19:14:08 10° WSW 19:18:24 20° SSW 19:22:41 10° SSE visible
24 Jan ? 21:06:53 10° SSW 21:08:05 11° S 21:08:05 11° S visible
25 Jan ? 04:27:05 63° WNW 04:27:50 72° NNW 04:33:45 10° ENE visible
25 Jan ? 19:01:34 10° SW 19:05:32 18° SSW 19:09:31 10° SSE visible
25 Jan ? 20:54:31 10° SSW 20:55:42 11° S 20:56:07 10° S visible
26 Jan ? 04:15:36 58° NNE 04:15:36 58° NNE 04:20:46 10° ENE visible
26 Jan ? 18:49:01 10° SW 18:52:41 16° SSW 18:56:21 10° SSE visible
26 Jan ? 20:42:13 10° S 20:42:55 10° S 20:43:36 10° S visible
